Flag Weather past 2 weeks in Shymkent, Kazakhstan

Now
41 °F

Sprinkles. Mostly cloudy.


Feels Like: 37 °F
Forecast: 24 / 38 °F
Wind: 6 mph from Southwest

Location: Shymkent Airport

Current Time: Nov 25, 2014 at 12:22:24 AM

Latest Report: Nov 24, 2014 at 11:30 PM


Visibility: 5 mi

Pressure: 30.24 "Hg

Humidity: 87%

Dew point: 37 °F

Location of ShymkentLocation

Historic Weather in Shymkent — Graph

°F

Shymkent temperature yesterday

Maximum temperature yesterday: 48 °F (at 6:30 AM)
Minimum temperature yesterday: 41 °F (at 3:30 AM)
Average temperature yesterday: 45 °F

Past Weeks' High & Low Weather Summary

 TemperatureHumidityPressure
High61 °F (Nov 18, 1:00 AM)93% (Nov 13, 4:00 AM)30.63 "Hg (Nov 13, 4:00 AM)
Low27 °F (Nov 14, 8:30 AM)22% (Nov 10, 2:00 PM)29.74 "Hg (Nov 24, 1:30 AM)
Average40 °F73%30.30 "Hg
* Reported Nov 9 11:00 PM — Nov 24 11:00 PM, Shymkent, Weather by CustomWeather, © 2014

Note: Actual official high and low records may vary slightly from our data, if they occured in-between our weather recording intervals... More about our weather records

Advertising

Shymkent weather history for previous 24 hours

 ConditionsComfort  
Time TempWeatherWind HumidityBarometerVisibility
11:00 PM
Nov 24
41 °FSprinkles. Mostly cloudy.6 mph87%30.24 "Hg5 mi
10:30 PM41 °FSprinkles. Mostly cloudy.10 mph87%30.21 "Hg4 mi
10:00 PM41 °FSprinkles. Mostly cloudy.10 mph87%30.21 "Hg4 mi
9:30 PM41 °FOvercast.10 mph87%30.21 "HgN/A
9:00 PM41 °FOvercast.10 mph81%30.18 "HgN/A
8:30 PM43 °FOvercast.13 mph81%30.18 "Hg5 mi
8:00 PM43 °FSprinkles. Fog.15 mph81%30.18 "Hg3 mi
7:30 PM43 °FSprinkles. Mostly cloudy.15 mph81%30.15 "Hg5 mi
7:00 PM45 °FMostly cloudy.15 mph76%30.15 "HgN/A
6:30 PM45 °FMostly cloudy.6 mph81%30.12 "HgN/A
6:00 PM45 °FMostly cloudy.13 mph81%30.12 "HgN/A
5:30 PM45 °FMostly cloudy.8 mph81%30.12 "HgN/A
5:00 PM45 °FMostly cloudy.8 mph81%30.12 "HgN/A
4:30 PM46 °FMostly cloudy.8 mph76%30.12 "HgN/A
4:00 PM46 °FMostly cloudy.8 mph76%30.09 "HgN/A
3:30 PM46 °FMostly cloudy.8 mph76%30.09 "HgN/A
3:00 PM46 °FMostly cloudy.8 mph76%30.09 "HgN/A
2:30 PM46 °FMostly cloudy.8 mph76%30.07 "HgN/A
2:00 PM45 °FMostly cloudy.8 mph87%30.07 "HgN/A
1:30 PM45 °FMostly cloudy.10 mph81%30.07 "HgN/A
1:00 PM46 °FMostly cloudy.13 mph76%30.04 "HgN/A
12:30 PM46 °FMostly cloudy.13 mph76%30.04 "Hg5 mi
12:00 PM46 °FOvercast.13 mph76%30.01 "Hg5 mi
11:30 AM46 °FOvercast.13 mph76%29.98 "Hg5 mi
11:00 AM48 °FOvercast.15 mph76%29.98 "Hg5 mi
10:30 AM48 °FOvercast.22 mph71%29.95 "Hg5 mi
10:00 AM48 °FSprinkles. Fog.10 mph71%29.92 "Hg3 mi
9:30 AM46 °FSprinkles. Fog.10 mph82%29.89 "Hg3 mi
9:00 AM48 °FSprinkles. Fog.8 mph76%29.86 "Hg3 mi
8:30 AM48 °FSprinkles. Fog.15 mph76%29.86 "Hg3 mi
8:00 AM46 °FSprinkles. Overcast.15 mph76%29.86 "Hg4 mi
7:30 AM46 °FSprinkles. Overcast.15 mph76%29.83 "Hg4 mi
7:00 AM46 °FSprinkles. Overcast.15 mph71%29.83 "Hg4 mi
6:30 AM48 °FSprinkles. Overcast.15 mph62%29.86 "HgN/A
5:30 AM45 °FMostly cloudy.6 mph61%29.80 "HgN/A
5:00 AM43 °FMostly cloudy.3 mph71%29.83 "HgN/A
4:30 AM45 °FMostly cloudy.1 mph61%29.80 "Hg5 mi
4:00 AM45 °FMostly cloudy.3 mph57%29.77 "Hg5 mi
3:30 AM41 °FMostly cloudy.3 mph70%29.77 "Hg5 mi
2:30 AM43 °FMostly cloudy.6 mph66%29.77 "Hg3 mi
2:00 AM45 °FMostly cloudy.1 mph66%29.74 "Hg3 mi
1:30 AM43 °FMostly cloudy.3 mph71%29.74 "Hg3 mi
1:00 AM45 °FMostly cloudy.6 mph61%29.77 "Hg2 mi
12:30 AM43 °FMostly cloudy.No wind66%29.77 "Hg2 mi
12:00 AM43 °FMostly cloudy.1 mph66%29.77 "Hg2 mi
Weather by CustomWeather, © 2014

See weather overviewHow to use our weather pages